Regional Weather Roundup
Issued by NWS

Home | Current Version | Previous Version | Graphics & Text | Print | Product List | Glossary On
Versions: 1 2 3 4 5 6 7 8 9 10 11 12 13 14 15 16 17 18 19 20 21 22 23 24 25 26 27
000
ASUS45 KCYS 212310
RWRWY

WYOMING REGIONAL WEATHER ROUNDUP
NATIONAL WEATHER SERVICE CHEYENNE WY
500 PM MDT TUE OCT 21 2014

NOTE:  "FAIR" INDICATES FEW OR NO CLOUDS BELOW 12,000 FEET
WITH NO SIGNIFICANT WEATHER AND/OR OBSTRUCTIONS TO VISIBILITY.

WYZ001-220000-
YELLOWSTONE NATIONAL PARK

CITY           SKY/WX    TMP DP  RH WIND       PRES   REMARKS
LK YELLOWSTONE   N/A     36  24  62 W9G21     30.05S WCI  29
W YELLOWSTONE  NOT AVBL

$$
WYZ002>013-054>058-071-098>099-220000-
NORTHERN WYOMING

CITY           SKY/WX    TMP DP  RH WIND       PRES   REMARKS
JACKSON        MOSUNNY   46  28  49 S16       30.04R
CODY           PTSUNNY  N/A N/A N/A W23G30    29.81S
GREYBULL       CLOUDY    70  36  28 NW6       29.74R
WORLAND        CLOUDY    69  33  26 SW16G29   29.77R
SHERIDAN       PTSUNNY   77  35  21 SW23      29.67R
BUFFALO        PTSUNNY   72  31  22 SW22      29.76R
GILLETTE       MOSUNNY   73  35  25 SW20G28   29.74R
HULETT         FAIR      77  36  22 SW18G25   29.74
NEWCASTLE      FAIR      75  32  20 SW16G22   29.78

$$
WYZ014>020-022>026-101>103-220000-
CENTRAL WYOMING

CITY           SKY/WX    TMP DP  RH WIND       PRES   REMARKS
BIG PINEY      MOSUNNY   50  30  46 W12       30.04R
PINEDALE       PTCLDY    45  34  65 NW14G21   30.04R
DUBOIS         FAIR      45  27  49 W28G39    29.97R
LANDER         PTSUNNY   64  35  34 S9        29.85R
RIVERTON       PTSUNNY   60  40  47 NW15      29.87R
CASPER         CLOUDY    68  36  30 SW16G31   29.85R
DOUGLAS        CLOUDY    70  35  27 SW12      29.86S

$$
WYZ021-027>030-104>119-220000-
SOUTHERN WYOMING

CITY           SKY/WX    TMP DP  RH WIND       PRES   REMARKS
EVANSTON       CLOUDY    50  29  44 W15       30.05R
KEMMERER       PTCLDY    48  30  49 W21G28    30.04R
FORT BRIDGER   FAIR      52  34  49 W17G25    30.06S
ROCK SPRINGS   CLOUDY    49  41  74 S6        30.00F
RAWLINS        PTSUNNY   62  36  37 SW21G30   29.97S
SARATOGA       MOCLDY    55  37  50 S9        30.03R
LARAMIE        CLOUDY    56  36  47 SW14      30.02F
CHEYENNE       LGT RAIN  63  39  41 W23       29.98S
TORRINGTON     LGT RAIN  67  47  48 W9        29.87R
PINE BLUFFS    FAIR      70  34  26 SE8       29.91S

$$



USA.gov is the U.S. government's official web portal to all federal, state and local government web resources and services.